Flag for U.S.A. Weather past 2 weeks in Passaic, New Jersey, U.S.A.

Now
14 °F

Clear.


Feels Like: 0 °F
Forecast: 12 / 23 °F
Wind: 13 mph from North

Location: Teterboro Airport

Current Time: Jan 31, 2015 at 6:06:40 AM

Latest Report: Jan 31, 2015 at 4:51 AM


Visibility: 10 mi

Pressure: 30.09 "Hg

Humidity: 47%

Dew point: -3 °F

Location of PassaicLocation

Historic Weather in Passaic — Graph

°F

Passaic temperature yesterday

Maximum temperature yesterday: 37 °F (at 12:51 PM)
Minimum temperature yesterday: 18 °F (at 11:51 PM)
Average temperature yesterday: 30 °F

Past Weeks' High & Low Weather Summary

 TemperatureHumidityPressure
High42 °F (Jan 16, 12:51 PM)97% (Jan 18, 1:51 PM)30.40 "Hg (Jan 18, 1:51 PM)
Low14 °F (Jan 29, 3:51 AM)26% (Jan 28, 4:51 PM)29.28 "Hg (Jan 24, 3:51 PM)
Average30 °F58%29.97 "Hg
* Reported Jan 16 4:51 AM — Jan 31 4:51 AM, Passaic, Weather by CustomWeather, © 2014

Note: Actual official high and low records may vary slightly from our data, if they occured in-between our weather recording intervals... More about our weather records

Advertising

Passaic weather history for previous 24 hours

 ConditionsComfort  
Time TempWeatherWind HumidityBarometerVisibility
4:51 AM
Jan 31
14 °FClear.13 mph47%30.09 "Hg10 mi
3:51 AM15 °FClear.16 mph51%30.08 "Hg10 mi
2:51 AM16 °FClear.16 mph51%30.06 "Hg10 mi
1:51 AM17 °FClear.17 mph49%30.06 "Hg10 mi
12:51 AM17 °FClear.17 mph49%30.04 "Hg10 mi
11:51 PM
Jan 30
18 °FPassing clouds.21 mph49%30.03 "Hg10 mi
10:51 PM19 °FClear.21 mph52%30.03 "Hg10 mi
9:51 PM20 °FPassing clouds.17 mph50%30.02 "Hg10 mi
8:51 PM21 °FClear.18 mph50%30.01 "Hg10 mi
7:51 PM23 °FClear.23 mph53%29.99 "Hg10 mi
6:51 PM26 °FClear.15 mph50%29.96 "Hg10 mi
5:51 PM30 °FPassing clouds.18 mph49%29.92 "Hg10 mi
4:51 PM34 °FPartly sunny.22 mph48%29.88 "Hg10 mi
3:51 PM36 °FScattered clouds.20 mph44%29.85 "Hg10 mi
2:51 PM37 °FPassing clouds.14 mph44%29.83 "Hg10 mi
1:51 PM37 °FOvercast.17 mph50%29.82 "Hg10 mi
12:51 PM37 °FMostly cloudy.18 mph50%29.83 "Hg10 mi
11:51 AM36 °FMore clouds than sun.12 mph62%29.85 "Hg10 mi
10:51 AM34 °FLight snow. Overcast.10 mph73%29.86 "Hg9 mi
9:51 AM32 °FLight snow. Ice fog.9 mph79%29.87 "Hg8 mi
8:51 AM31 °FLight snow. Ice fog.6 mph82%29.88 "Hg2 mi
7:51 AM31 °FLight snow. Ice fog.3 mph79%29.85 "Hg5 mi
6:51 AM31 °FLight snow. Ice fog.5 mph89%29.84 "Hg6 mi
Weather by CustomWeather, © 2014

See weather overviewHow to use our weather pages